Location: Caltech
(34.1382°N, 118.1253°W)
Time: 16:38:07
(UTC-07:00)

Cosmos 1606 - Visible Passes

Search period start: 18 April 2014 00:00
Search period end: 28 April 2014 00:00
Orbit: 524 x 549 km, 82.5° (Epoch: 17 April)

Date Brightness Start Highest point End Pass type
(mag) Time Alt. Az. Time Alt. Az. Time Alt. Az.
22 Apr 5.9 22:41:55 10° N 22:41:55 10° N 22:41:57 10° N visible
23 Apr 5.7 22:32:58 13° N 22:32:58 13° N 22:33:24 10° N visible
24 Apr 5.4 22:23:59 16° N 22:23:59 16° N 22:24:50 10° N visible
25 Apr 5.1 22:14:56 20° N 22:14:56 20° N 22:16:16 10° N visible
26 Apr 4.6 22:05:49 26° N 22:05:49 26° N 22:07:40 10° N visible
27 Apr 4.1 21:56:38 36° N 21:56:38 36° N 21:59:04 10° N visible
